Location: Brahman Valley
(40.6513°N, 111.8855°W)
Time: 12:08:18
(UTC+00:00)

Vanguard 2 - Pass Details

Date: 21 May 2021
Orbit: 552 x 2937 km, 32.9° (Epoch: 14 June)

Event Time Altitude Azimuth Distance (km) Brightness Sun altitude
Rises 14:17:52 0° 269° (W) 4,300 10.8 23.0°
Reaches altitude 10° 14:20:25 10° 264° (W) 3,595 10.5 23.5°
Maximum altitude 14:29:46 50° 192° (SSW) 2,458 10.3 25.3°
Drops below altitude 10° 14:44:21 10° 124° (ESE) 5,457 12.8 28.0°
Sets 14:49:15 0° 120° (ESE) 6,657 13.1 29.0°
